FW8999 Weather Reports


time (UTC)temp
C
wind
direction
speed
KPH
gust
KPH
rain 1hr
cm
rain 24hr
cm
rain mn
cm
humidity
%
barometer
mb
20260504214718 20 25 4.8 4.8 0.00 0.00 0.00 37 1013.7
20260504213717 20 262 4.8 4.8 0.00 0.00 0.00 37 1013.6
20260504212717 20 348 0.0 1.6 0.00 0.00 0.00 39 1013.7
20260504211717 20 26 3.2 3.2 0.00 0.00 0.00 38 1013.7
20260504210716 20 312 4.8 4.8 0.00 0.00 0.00 37 1013.7
20260504205716 20 229 3.2 4.8 0.00 0.00 0.00 40 1013.8
20260504204712 20 334 0.0 0.0 0.00 0.00 0.00 41 1013.7
20260504203708 20 287 1.6 3.2 0.00 0.00 0.00 39 1013.5
20260504202705 20 251 1.6 3.2 0.00 0.00 0.00 40 1013.5
20260504201700 20 59 1.6 3.2 0.00 0.00 0.00 41 1013.7
20260504200655 20 288 0.0 0.0 0.00 0.00 0.00 40 1013.7
20260504195653 20 0 3.2 4.8 0.00 0.00 0.00 40 1013.8
20260504194652 19 241 3.2 3.2 0.00 0.00 0.00 41 1013.8
20260504193650 19 238 1.6 1.6 0.00 0.00 0.00 43 1014.0
20260504192646 19 25 4.8 4.8 0.00 0.00 0.00 43 1014.3
20260504191642 18 316 1.6 1.6 0.00 0.00 0.00 45 1014.2
20260504190640 18 7 8.0 9.7 0.00 0.00 0.00 46 1014.5
20260504185639 18 109 0.0 1.6 0.00 0.00 0.00 47 1014.7
20260504184638 17 338 1.6 3.2 0.00 0.00 0.00 47 1014.7
20260504183636 17 350 3.2 3.2 0.00 0.00 0.00 48 1014.9
20260504182631 17 345 6.4 8.0 0.00 0.00 0.00 49 1014.9
20260504181631 16 346 3.2 3.2 0.00 0.00 0.00 51 1014.9
20260504180628 16 355 4.8 4.8 0.00 0.00 0.00 51 1015.1
20260504175629 16 264 1.6 3.2 0.00 0.00 0.00 54 1015.1
20260504174624 15 8 4.8 4.8 0.00 0.00 0.00 54 1015.4
20260504173623 15 102 4.8 4.8 0.00 0.00 0.00 55 1015.7
20260504172622 15 13 0.0 1.6 0.00 0.00 0.00 59 1015.5
20260504171621 15 351 6.4 8.0 0.00 0.00 0.00 53 1015.7
20260504170620 15 350 3.2 3.2 0.00 0.00 0.00 56 1015.2
20260504150554 16 55 3.2 3.2 0.00 0.00 0.00 49 1014.5
20260504140545 13 183 4.8 4.8 0.00 0.00 0.00 57 1015.4
20260504130527 11 190 3.2 3.2 0.00 0.00 0.00 66 1016.1
20260504110508 2 16 0.0 0.0 0.00 0.00 0.00 89 1017.4
20260504100448 1 20 0.0 0.0 0.00 0.00 0.00 90 1017.4
20260504081423 0 13 0.0 0.0 0.00 0.00 0.00 94 1017.5
20260504080422 0 6 0.0 0.0 0.00 0.00 0.00 94 1017.4
20260504070356 0 18 0.0 0.0 0.00 0.00 0.00 93 1017.2
20260504050328 0 329 0.0 0.0 0.00 0.00 0.00 90 1017.1
20260504045325 0 332 0.0 0.0 0.00 0.00 0.00 90 1017.2
20260504044320 0 19 0.0 0.0 0.00 0.00 0.00 90 1016.9
20260504043320 0 294 1.6 1.6 0.00 0.00 0.00 89 1017.1
20260504042320 0 345 0.0 0.0 0.00 0.00 0.00 88 1017.1
20260504041318 0 343 0.0 0.0 0.00 0.00 0.00 88 1016.9
20260504040318 0 357 0.0 0.0 0.00 0.00 0.00 88 1016.9
20260504035317 0 348 0.0 0.0 0.00 0.71 0.71 88 1016.8
20260504034312 0 343 0.0 0.0 0.00 0.71 0.71 87 1016.8
20260504033307 1 322 0.0 0.0 0.00 0.71 0.71 86 1016.7
20260504032306 1 352 0.0 0.0 0.00 0.71 0.71 84 1016.6
20260504031306 1 11 0.0 0.0 0.00 0.71 0.71 85 1016.6
20260504030306 1 307 0.0 1.6 0.00 0.71 0.71 84 1016.5
20260504025305 1 18 1.6 1.6 0.00 0.71 0.71 83 1016.6
20260504024304 2 23 0.0 0.0 0.00 0.71 0.71 82 1016.6
20260504023303 2 54 0.0 1.6 0.00 0.71 0.71 83 1016.7
20260504022301 2 23 0.0 0.0 0.00 0.71 0.71 83 1016.7
20260504021301 2 43 0.0 1.6 0.00 0.71 0.71 80 1016.6
20260504020301 3 315 1.6 1.6 0.00 0.71 0.71 79 1016.7
20260504015259 3 35 1.6 1.6 0.00 0.71 0.71 77 1016.5
20260504014257 3 45 0.0 0.0 0.00 0.71 0.71 77 1016.6
20260504013253 3 74 0.0 0.0 0.00 0.71 0.71 75 1016.7
20260504012253 4 36 0.0 0.0 0.00 0.71 0.71 75 1016.7
20260504011252 4 31 0.0 0.0 0.00 0.71 0.71 70 1016.3
20260504010249 5 33 1.6 1.6 0.00 0.71 0.71 70 1016.3
20260504005249 5 4 1.6 1.6 0.00 0.71 0.71 71 1016.3
20260504004244 5 30 0.0 1.6 0.00 0.71 0.71 68 1016.2
20260504003243 5 131 3.2 3.2 0.00 0.71 0.71 66 1015.9
20260504002242 6 18 0.0 1.6 0.00 0.71 0.71 65 1015.8
20260504001242 6 31 0.0 0.0 0.00 0.71 0.71 66 1015.9
20260504000242 7 106 1.6 1.6 0.00 0.71 0.71 60 1015.5
20260503235237 7 257 4.8 4.8 0.00 0.71 0.71 57 1015.4
20260503234233 7 268 1.6 1.6 0.00 0.71 0.71 58 1015.3
20260503233231 7 338 0.0 0.0 0.00 0.71 0.71 60 1015.4
20260503232231 8 1 6.4 8.0 0.00 0.71 0.71 56 1015.4
20260503231226 8 358 1.6 3.2 0.00 0.71 0.71 57 1015.5
20260503230226 8 8 0.0 0.0 0.00 0.71 0.71 58 1015.2
20260503225223 8 44 4.8 4.8 0.00 0.71 0.71 55 1015.1
20260503224218 8 335 1.6 3.2 0.00 0.71 0.71 52 1015.1
20260503223213 8 280 3.2 3.2 0.00 0.71 0.71 51 1015.1
20260503222213 9 264 3.2 4.8 0.00 0.71 0.71 51 1014.9
20260503221208 9 19 4.8 8.0 0.00 0.71 0.71 50 1014.9
20260503220207 9 324 3.2 3.2 0.00 0.71 0.71 48 1014.7